EW4543 Weather Reports


Display with metric or nautical units.
time (UTC)temp
F
wind
direction
speed
MPH
gust
MPH
rain 1hr
in
rain 24hr
in
rain mn
in
humidity
%
barometer
mb
20260904194619 65 125 2.0 4.0 0.00 0.09 0.09 67 1009.7
20260904193039 66 198 0.0 4.0 0.00 0.09 0.09 68 1009.8
20260904191531 65 71 0.0 4.0 0.00 0.09 0.09 63 1009.9
20260904190026 63 210 0.0 2.0 0.00 0.09 0.09 77 1010.0
20260904184522 61 180 2.0 5.0 0.00 0.09 0.09 78 1010.0
20260904183120 60 134 0.0 0.0 0.00 0.09 0.09 89 1010.0
20260904181518 58 229 0.0 0.0 0.00 0.09 0.09 93 1010.0
20260904180019 57 285 0.0 0.0 0.00 0.09 0.09 93 1010.1
20260904174517 57 285 0.0 0.0 0.02 0.09 0.09 93 1010.1
20260904173019 56 172 0.0 0.0 0.02 0.09 0.09 94 1010.0
20260904171521 56 279 0.0 1.0 0.02 0.09 0.09 94 1009.8
20260904170014 55 175 0.0 2.0 0.02 0.09 0.09 94 1009.8
20260904164511 55 221 0.0 0.0 0.01 0.07 0.07 94 1009.8
20260904163011 55 221 0.0 0.0 0.01 0.07 0.07 93 1009.6
20260904161510 55 295 0.0 0.0 0.01 0.07 0.07 93 1009.6
20260904160008 55 295 0.0 0.0 0.01 0.07 0.07 93 1009.5
20260904154507 56 210 0.0 1.0 0.00 0.06 0.06 94 1009.4
20260904153012 56 205 0.0 1.0 0.00 0.06 0.06 94 1009.2
20260904151503 56 214 0.0 0.0 0.00 0.06 0.06 94 1009.2
20260904150100 56 214 0.0 0.0 0.00 0.06 0.06 94 1008.9
20260904150002 56 214 0.0 0.0 0.00 0.06 0.06 94 1008.8
20260904144600 56 212 0.0 0.0 0.00 0.06 0.06 94 1008.8
20260904143057 56 212 0.0 0.0 0.00 0.06 0.06 94 1008.6
20260904141620 55 212 0.0 0.0 0.00 0.06 0.06 94 1008.4
20260904140105 55 212 0.0 0.0 0.00 0.06 0.06 94 1008.4
20260904134557 56 212 0.0 0.0 0.00 0.06 0.06 94 1008.3
20260904133107 56 212 0.0 0.0 0.01 0.06 0.06 93 1008.1
20260904131605 56 212 0.0 0.0 0.02 0.06 0.06 93 1008.1
20260904130048 56 212 0.0 1.0 0.03 0.06 0.06 93 1008.0
20260904124546 56 203 0.0 2.0 0.04 0.06 0.06 93 1008.0
20260904123045 57 219 0.0 2.0 0.03 0.05 0.05 93 1007.8
20260904121543 57 194 0.0 2.0 0.03 0.04 0.04 93 1007.7
20260904120044 58 250 0.0 2.0 0.03 0.03 0.03 93 1007.6
20260904114539 58 120 0.0 1.0 0.02 0.02 0.02 93 1007.6
20260904113041 58 209 0.0 1.0 0.02 0.02 0.02 93 1007.4
20260904111537 58 155 0.0 0.0 0.01 0.01 0.01 92 1007.3
20260904110036 58 155 0.0 0.0 0.00 0.00 0.00 92 1007.2
20260904104536 58 155 0.0 0.0 0.00 0.00 0.00 92 1007.2
20260904103040 58 193 0.0 0.0 0.00 0.00 0.00 92 1007.2
20260904101535 58 188 0.0 0.0 0.00 0.00 0.00 91 1007.2
20260904100033 59 188 0.0 0.0 0.00 0.00 0.00 91 1007.2
20260904094531 59 188 0.0 1.0 0.00 0.00 0.00 91 1007.2
20260904093031 59 204 0.0 1.0 0.00 0.00 0.00 90 1007.2
20260904091529 59 203 0.0 1.0 0.00 0.00 0.00 89 1007.3
20260904090026 59 197 0.0 2.0 0.00 0.00 0.00 88 1007.4
20260904084525 60 200 0.0 0.0 0.00 0.00 0.00 87 1007.4
20260904083024 60 200 0.0 0.0 0.00 0.00 0.00 86 1007.6
20260904081523 60 181 0.0 0.0 0.00 0.00 0.00 86 1007.5
20260904080030 60 173 0.0 0.0 0.00 0.00 0.00 85 1007.6
20260904074527 60 203 0.0 0.0 0.00 0.00 0.00 85 1007.8
20260904073018 60 232 0.0 0.0 0.00 0.00 0.00 84 1007.9
20260904071516 61 216 0.0 0.0 0.00 0.00 0.00 84 1007.8
20260904070014 61 141 0.0 0.0 0.00 0.00 0.00 83 1007.8
20260904064513 61 200 0.0 0.0 0.00 0.00 0.00 83 1007.7
20260904063016 61 201 0.0 0.0 0.00 0.00 0.00 83 1007.7
20260904061521 61 198 0.0 0.0 0.00 0.00 0.00 83 1007.7
20260904060012 61 198 0.0 0.0 0.00 0.00 0.00 82 1007.7
20260904054512 61 213 0.0 0.0 0.00 0.00 0.00 82 1007.8
20260904053011 61 213 0.0 0.0 0.00 0.00 0.00 82 1007.8
20260904051525 61 212 0.0 0.0 0.00 0.00 0.00 81 1008.0
20260904050009 62 217 0.0 0.0 0.00 0.00 0.00 81 1008.0
20260904044509 62 217 0.0 0.0 0.00 0.00 0.00 80 1008.2
20260904043011 62 194 0.0 0.0 0.00 0.00 0.00 80 1008.2
20260904041518 62 193 0.0 0.0 0.00 0.00 0.00 79 1008.2
20260904040008 62 196 0.0 0.0 0.00 0.00 0.00 79 1008.1
20260904034507 62 204 0.0 0.0 0.00 0.00 0.00 78 1008.1
20260904033006 62 203 0.0 0.0 0.00 0.00 0.00 78 1007.9
20260904031505 63 209 0.0 2.0 0.00 0.00 0.00 78 1007.8
20260904030035 63 133 0.0 0.0 0.00 0.00 0.00 78 1007.7
20260904024535 63 221 0.0 0.0 0.00 0.00 0.00 77 1007.7
20260904023034 64 204 0.0 3.0 0.00 0.00 0.00 76 1007.7
20260904021534 64 210 0.0 0.0 0.00 0.00 0.00 75 1007.6
20260904020040 64 215 0.0 2.0 0.00 0.00 0.00 74 1007.6
20260904014531 65 162 0.0 4.0 0.00 0.00 0.00 73 1007.6
20260904013035 66 128 0.0 1.0 0.00 0.00 0.00 71 1007.8
20260904011530 66 319 0.0 2.0 0.00 0.00 0.00 70 1007.9
20260904010029 67 236 1.0 5.0 0.00 0.00 0.00 67 1007.9
20260904004530 67 191 0.0 2.0 0.00 0.00 0.00 64 1007.8
20260904003029 68 227 0.0 2.0 0.00 0.00 0.00 63 1007.9
20260904001527 68 245 0.0 2.0 0.00 0.00 0.00 63 1007.8
20260904000025 68 297 0.0 3.0 0.00 0.00 0.00 62 1007.9
20260903234524 69 305 0.0 3.0 0.00 0.00 0.00 61 1008.0
20260903233023 70 234 0.0 5.0 0.00 0.00 0.00 59 1008.0
20260903231523 70 242 0.0 4.0 0.00 0.00 0.00 57 1008.0
20260903230024 71 198 1.0 3.0 0.00 0.00 0.00 56 1008.2
20260903224517 71 135 0.0 4.0 0.00 0.01 0.00 54 1008.4
20260903223022 72 298 1.0 6.0 0.00 0.01 0.00 53 1008.7
20260903221514 72 284 1.0 5.0 0.00 0.01 0.00 49 1008.9
20260903220011 72 250 2.0 6.0 0.00 0.01 0.00 47 1009.0
20260903214513 72 293 1.0 5.0 0.00 0.01 0.00 46 1009.1
20260903213012 71 194 1.0 6.0 0.00 0.01 0.00 50 1009.0
20260903211509 71 212 1.0 4.0 0.00 0.01 0.00 52 1009.1
20260903210007 71 184 1.0 4.0 0.00 0.01 0.00 53 1009.1
20260903204506 70 184 0.0 5.0 0.00 0.01 0.00 55 1009.1
20260903203006 70 269 2.0 7.0 0.00 0.01 0.00 54 1009.4
20260903201503 70 224 1.0 4.0 0.00 0.01 0.00 54 1009.5
20260903200007 71 325 1.0 6.0 0.00 0.01 0.00 53 1009.5